Location: Newark
(35.2672°N, 80.7344°W)
Time: 20:56:10
(UTC+00:00)

Vanguard 2 Rocket - Pass Details

Date: 19 January 2020
Orbit: 553 x 3327 km, 32.9° (Epoch: 23 February)

Event Time Altitude Azimuth Distance (km) Brightness Sun altitude
Rises 15:21:50 0° 276° (W) 4,146 9.9 26.2°
Reaches altitude 10° 15:24:09 10° 274° (W) 3,447 9.6 26.5°
Maximum altitude 15:33:20 70° 192° (SSW) 2,113 9.5 27.5°
Drops below altitude 10° 15:49:42 10° 113° (ESE) 5,789 11.9 29.2°
Sets 15:54:53 0° 112° (ESE) 7,066 12.1 29.7°
